Time,TemperatureF,DewpointF,PressureIn,WindDirection,WindDirectionDegrees,WindSpeedMPH,WindSpeedGustMPH,Humidity,HourlyPrecipIn,Conditions,Clouds,dailyrainin,SoftwareType,DateUTC
2013-11-01 00:01:00,54.5,49.8,29.27,NE,56,0.0,0.0,84,0.04,,---,0.00,VWS V14.01,2013-11-01 04:01:00,
2013-11-01 00:06:00,54.3,49.6,29.27,NE,52,0.0,8.7,84,0.08,,---,0.04,VWS V14.01,2013-11-01 04:06:00,
2013-11-01 00:11:00,54.1,49.4,29.27,North,353,0.0,8.7,84,0.08,,---,0.04,VWS V14.01,2013-11-01 04:11:00,
2013-11-01 00:16:00,54.0,49.2,29.27,West,268,3.6,8.7,84,0.08,,---,0.04,VWS V14.01,2013-11-01 04:16:00,
2013-11-01 00:21:00,54.0,49.2,29.27,North,353,0.0,4.0,84,0.04,,---,0.04,VWS V14.01,2013-11-01 04:21:00,
2013-11-01 00:26:00,53.8,49.1,29.27,NW,316,4.0,4.0,84,0.04,,---,0.04,VWS V14.01,2013-11-01 04:26:00,
2013-11-01 00:31:00,53.8,49.1,29.27,NW,318,4.0,7.6,84,0.04,,---,0.04,VWS V14.01,2013-11-01 04:31:00,
2013-11-01 00:36:00,53.8,49.1,29.27,NNW,336,2.2,8.7,84,0.04,,---,0.04,VWS V14.01,2013-11-01 04:36:00,
2013-11-01 00:42:00,53.6,48.9,29.27,NW,320,0.0,8.3,84,0.04,,---,0.04,VWS V14.01,2013-11-01 04:42:00,
2013-11-01 00:47:00,53.4,48.7,29.27,NNW,336,3.1,8.7,84,0.04,,---,0.04,VWS V14.01,2013-11-01 04:47:00,
2013-11-01 00:52:00,53.4,48.7,29.27,West,279,5.4,8.7,84,0.04,,---,0.04,VWS V14.01,2013-11-01 04:52:00,
2013-11-01 00:57:00,53.2,48.5,29.24,North,357,5.4,8.7,84,0.04,,---,0.04,VWS V14.01,2013-11-01 04:57:00,
2013-11-01 01:02:00,53.1,48.4,29.24,North,353,10.5,10.5,84,0.04,,---,0.04,VWS V14.01,2013-11-01 05:02:00,
2013-11-01 01:07:00,52.9,48.2,29.24,NNW,346,0.0,10.5,84,0.08,,---,0.08,VWS V14.01,2013-11-01 05:07:00,
2013-11-01 01:12:00,52.9,48.2,29.27,NW,323,3.1,10.5,84,0.08,,---,0.08,VWS V14.01,2013-11-01 05:12:00,
2013-11-01 01:17:00,52.9,48.2,29.27,WNW,291,3.6,10.5,84,0.08,,---,0.08,VWS V14.01,2013-11-01 05:17:00,
2013-11-01 01:22:00,52.7,48.0,29.27,NW,325,5.4,6.3,84,0.04,,---,0.08,VWS V14.01,2013-11-01 05:22:00,
2013-11-01 01:27:00,52.7,48.0,29.27,West,265,5.4,8.3,84,0.04,,---,0.08,VWS V14.01,2013-11-01 05:27:00,
2013-11-01 01:32:00,52.5,47.5,29.27,North,353,3.1,8.3,83,0.04,,---,0.08,VWS V14.01,2013-11-01 05:32:00,
2013-11-01 01:37:00,52.3,47.3,29.27,NW,321,4.9,8.3,83,0.04,,---,0.08,VWS V14.01,2013-11-01 05:37:00,
2013-11-01 01:42:00,52.3,47.7,29.27,West,275,7.6,7.6,84,0.04,,---,0.08,VWS V14.01,2013-11-01 05:42:00,
2013-11-01 01:45:00,52.2,47.5,29.27,NNW,338,6.3,10.5,84,0.04,,---,0.08,VWS V14.01,2013-11-01 05:45:00,
2013-11-01 01:50:00,52.2,47.2,29.27,NW,325,3.1,10.5,83,0.04,,---,0.08,VWS V14.01,2013-11-01 05:50:00,
2013-11-01 01:55:00,51.6,47.0,29.27,NW,310,8.3,10.5,84,0.04,,---,0.08,VWS V14.01,2013-11-01 05:55:00,
2013-11-01 02:00:00,51.4,46.5,29.27,WNW,297,0.0,0.0,83,0.04,,---,0.08,VWS V14.01,2013-11-01 06:00:00,
2013-11-01 02:05:00,51.3,46.3,29.27,West,269,5.4,8.1,83,0.04,,---,0.08,VWS V14.01,2013-11-01 06:05:00,
2013-11-01 02:10:00,50.9,45.6,29.27,NW,304,4.0,8.1,82,0.04,,---,0.08,VWS V14.01,2013-11-01 06:10:00,
2013-11-01 02:15:00,50.7,45.4,29.30,WSW,248,7.6,10.5,82,0.08,,---,0.12,VWS V14.01,2013-11-01 06:15:00,
2013-11-01 02:20:00,50.5,45.3,29.30,North,357,2.7,2.7,82,0.04,,---,0.12,VWS V14.01,2013-11-01 06:20:00,
2013-11-01 02:25:00,50.4,44.8,29.30,West,276,3.1,8.7,81,0.04,,---,0.12,VWS V14.01,2013-11-01 06:25:00,
2013-11-01 02:30:00,50.2,44.6,29.30,NW,311,4.0,9.6,81,0.04,,---,0.12,VWS V14.01,2013-11-01 06:30:00,
2013-11-01 02:35:00,49.6,44.1,29.30,NW,311,7.6,9.6,81,0.04,,---,0.12,VWS V14.01,2013-11-01 06:35:00,
2013-11-01 02:40:00,49.3,43.7,29.30,WNW,289,8.3,8.3,81,0.04,,---,0.12,VWS V14.01,2013-11-01 06:40:00,
2013-11-01 02:45:00,49.1,43.2,29.30,NW,312,8.3,13.2,80,0.04,,---,0.12,VWS V14.01,2013-11-01 06:45:00,
2013-11-01 02:50:00,48.9,43.0,29.30,North,11,7.2,13.2,80,0.04,,---,0.12,VWS V14.01,2013-11-01 06:50:00,
2013-11-01 02:55:00,48.7,42.9,29.33,WNW,300,5.4,13.2,80,0.04,,---,0.12,VWS V14.01,2013-11-01 06:55:00,
2013-11-01 03:00:00,48.6,42.7,29.33,WNW,301,4.9,11.0,80,0.04,,---,0.12,VWS V14.01,2013-11-01 07:00:00,
2013-11-01 03:05:00,48.2,42.3,29.33,NW,317,8.7,14.5,80,0.04,,---,0.12,VWS V14.01,2013-11-01 07:05:00,
2013-11-01 03:10:00,48.0,42.2,29.33,WNW,292,4.0,14.5,80,0.04,,---,0.12,VWS V14.01,2013-11-01 07:10:00,
2013-11-01 03:15:00,47.8,42.0,29.33,West,281,14.1,14.5,80,0.04,,---,0.12,VWS V14.01,2013-11-01 07:15:00,
2013-11-01 03:20:00,47.5,41.6,29.33,WNW,300,8.7,8.7,80,0.04,,---,0.16,VWS V14.01,2013-11-01 07:20:00,
2013-11-01 03:25:00,47.5,41.3,29.33,NW,305,7.6,12.8,79,0.04,,---,0.16,VWS V14.01,2013-11-01 07:25:00,
2013-11-01 03:30:00,47.3,41.5,29.33,West,277,6.3,12.8,80,0.04,,---,0.16,VWS V14.01,2013-11-01 07:30:00,
2013-11-01 03:35:00,47.3,41.5,29.33,West,271,7.6,12.8,80,0.04,,---,0.16,VWS V14.01,2013-11-01 07:35:00,
2013-11-01 03:40:00,46.9,41.1,29.36,WNW,300,11.0,11.0,80,0.04,,---,0.16,VWS V14.01,2013-11-01 07:40:00,
2013-11-01 03:45:00,46.8,40.6,29.36,North,350,5.8,12.3,79,0.04,,---,0.16,VWS V14.01,2013-11-01 07:45:00,
2013-11-01 03:50:00,46.6,40.4,29.36,NW,310,7.2,16.3,79,0.04,,---,0.16,VWS V14.01,2013-11-01 07:50:00,
2013-11-01 03:55:00,46.2,40.1,29.36,West,276,11.0,16.8,79,0.04,,---,0.16,VWS V14.01,2013-11-01 07:55:00,
2013-11-01 04:00:00,46.0,39.9,29.36,NNW,332,10.1,11.4,79,0.04,,---,0.16,VWS V14.01,2013-11-01 08:00:00,
2013-11-01 04:05:00,46.0,39.9,29.36,NNW,335,5.4,15.4,79,0.04,,---,0.16,VWS V14.01,2013-11-01 08:05:00,
2013-11-01 04:10:00,45.9,39.7,29.36,NNW,336,20.6,20.6,79,0.04,,---,0.16,VWS V14.01,2013-11-01 08:10:00,
2013-11-01 04:15:00,45.9,39.7,29.36,NNW,328,3.6,20.6,79,0.04,,---,0.16,VWS V14.01,2013-11-01 08:15:00,
2013-11-01 04:20:00,45.7,39.5,29.36,North,357,4.5,7.6,79,0.00,,---,0.16,VWS V14.01,2013-11-01 08:20:00,
2013-11-01 04:25:00,45.7,39.5,29.36,WSW,250,3.6,8.1,79,0.00,,---,0.16,VWS V14.01,2013-11-01 08:25:00,
2013-11-01 04:30:00,45.5,39.7,29.36,NW,320,13.2,14.5,80,0.00,,---,0.16,VWS V14.01,2013-11-01 08:30:00,
2013-11-01 04:35:00,45.3,39.5,29.36,WNW,298,8.3,14.5,80,0.00,,---,0.16,VWS V14.01,2013-11-01 08:35:00,
2013-11-01 04:40:00,45.3,39.5,29.39,NW,318,8.7,10.5,80,0.00,,---,0.16,VWS V14.01,2013-11-01 08:40:00,
2013-11-01 04:45:00,45.1,39.3,29.39,NNW,343,5.4,10.5,80,0.00,,---,0.16,VWS V14.01,2013-11-01 08:45:00,
2013-11-01 04:50:00,45.1,39.3,29.39,WNW,291,8.7,13.2,80,0.00,,---,0.16,VWS V14.01,2013-11-01 08:50:00,
2013-11-01 04:55:00,45.0,39.2,29.39,WNW,293,13.2,13.2,80,0.00,,---,0.16,VWS V14.01,2013-11-01 08:55:00,
2013-11-01 05:00:00,45.0,39.2,29.39,NW,309,6.3,6.3,80,0.00,,---,0.16,VWS V14.01,2013-11-01 09:00:00,
2013-11-01 05:05:00,44.8,39.0,29.39,WNW,286,5.8,10.5,80,0.00,,---,0.16,VWS V14.01,2013-11-01 09:05:00,
2013-11-01 05:10:00,44.8,39.0,29.39,NNW,339,4.0,10.5,80,0.00,,---,0.16,VWS V14.01,2013-11-01 09:10:00,
2013-11-01 05:15:00,44.8,39.0,29.39,West,265,4.0,10.5,80,0.00,,---,0.16,VWS V14.01,2013-11-01 09:15:00,
2013-11-01 05:31:00,44.4,39.0,29.41,WNW,295,3.6,13.2,81,0.00,,---,0.16,VWS V14.01,2013-11-01 09:31:00,
2013-11-01 05:36:00,44.4,39.0,29.41,North,353,10.5,13.2,81,0.00,,---,0.16,VWS V14.01,2013-11-01 09:36:00,
2013-11-01 05:41:00,44.4,39.0,29.41,NW,320,10.1,10.1,81,0.00,,---,0.16,VWS V14.01,2013-11-01 09:41:00,
2013-11-01 05:46:00,44.2,38.8,29.41,WNW,291,6.7,10.1,81,0.00,,---,0.16,VWS V14.01,2013-11-01 09:46:00,
2013-11-01 05:51:00,44.2,38.8,29.41,NNW,330,0.0,11.0,81,0.00,,---,0.16,VWS V14.01,2013-11-01 09:51:00,
2013-11-01 05:56:00,44.2,38.8,29.41,SW,233,8.1,11.0,81,0.00,,---,0.16,VWS V14.01,2013-11-01 09:56:00,
2013-11-01 06:01:00,44.2,38.8,29.41,WNW,287,5.4,9.2,81,0.00,,---,0.16,VWS V14.01,2013-11-01 10:01:00,
2013-11-01 06:06:00,44.4,39.0,29.41,North,353,3.1,12.3,81,0.00,,---,0.16,VWS V14.01,2013-11-01 10:06:00,
2013-11-01 06:11:00,44.2,38.8,29.44,NNE,20,4.0,12.3,81,0.00,,---,0.16,VWS V14.01,2013-11-01 10:11:00,
2013-11-01 06:16:00,44.2,38.8,29.44,West,280,8.3,12.3,81,0.04,,---,0.20,VWS V14.01,2013-11-01 10:16:00,
2013-11-01 06:22:00,44.2,38.8,29.44,West,280,8.3,8.3,81,0.04,,---,0.20,VWS V14.01,2013-11-01 10:22:00,
2013-11-01 06:27:00,44.1,38.6,29.44,West,280,8.3,8.3,81,0.04,,---,0.20,VWS V14.01,2013-11-01 10:27:00,
2013-11-01 06:32:00,44.1,38.6,29.44,West,280,8.3,8.3,81,0.04,,---,0.20,VWS V14.01,2013-11-01 10:32:00,
2013-11-01 06:37:00,44.1,38.9,29.44,WNW,284,3.1,8.3,82,0.04,,---,0.20,VWS V14.01,2013-11-01 10:37:00,
2013-11-01 06:42:00,44.1,38.6,29.44,North,353,8.7,8.7,81,0.08,,---,0.24,VWS V14.01,2013-11-01 10:42:00,
2013-11-01 06:47:00,44.1,38.6,29.44,NW,324,7.6,8.7,81,0.08,,---,0.24,VWS V14.01,2013-11-01 10:47:00,
2013-11-01 06:52:00,44.1,38.6,29.44,North,9,5.8,8.7,81,0.08,,---,0.24,VWS V14.01,2013-11-01 10:52:00,
2013-11-01 06:57:00,44.1,38.6,29.47,NW,311,9.2,9.2,81,0.08,,---,0.24,VWS V14.01,2013-11-01 10:57:00,
2013-11-01 07:02:00,44.1,38.6,29.47,North,357,0.0,8.1,81,0.08,,---,0.24,VWS V14.01,2013-11-01 11:02:00,
2013-11-01 07:07:00,44.1,38.6,29.47,WNW,293,7.6,8.1,81,0.08,,---,0.24,VWS V14.01,2013-11-01 11:07:00,
2013-11-01 07:12:00,44.1,38.6,29.47,NNW,329,3.1,10.5,81,0.08,,---,0.24,VWS V14.01,2013-11-01 11:12:00,
2013-11-01 07:17:00,44.1,38.6,29.47,NW,319,8.1,10.5,81,0.08,,---,0.24,VWS V14.01,2013-11-01 11:17:00,
2013-11-01 07:22:00,44.1,38.6,29.47,NNW,338,0.0,7.6,81,0.04,,---,0.24,VWS V14.01,2013-11-01 11:22:00,
2013-11-01 07:27:00,44.1,38.6,29.47,NW,320,3.6,14.1,81,0.04,,---,0.24,VWS V14.01,2013-11-01 11:27:00,
2013-11-01 07:32:00,43.9,38.4,29.47,WSW,254,7.6,14.1,81,0.04,,---,0.24,VWS V14.01,2013-11-01 11:32:00,
2013-11-01 07:37:00,43.9,38.4,29.47,NNW,341,0.0,14.1,81,0.04,,---,0.24,VWS V14.01,2013-11-01 11:37:00,
2013-11-01 07:42:00,44.1,38.6,29.47,NW,316,5.4,5.8,81,0.00,,---,0.24,VWS V14.01,2013-11-01 11:42:00,
2013-11-01 07:47:00,43.9,38.4,29.47,North,357,0.0,7.6,81,0.00,,---,0.24,VWS V14.01,2013-11-01 11:47:00,
2013-11-01 07:52:00,43.9,38.4,29.47,West,270,4.0,9.6,81,0.00,,---,0.24,VWS V14.01,2013-11-01 11:52:00,
2013-11-01 07:57:00,43.9,38.4,29.50,NW,326,2.2,9.6,81,0.00,,---,0.24,VWS V14.01,2013-11-01 11:57:00,
2013-11-01 08:02:00,43.9,38.4,29.50,NW,321,5.4,8.1,81,0.00,,---,0.24,VWS V14.01,2013-11-01 12:02:00,
2013-11-01 08:07:00,43.9,38.4,29.50,NW,310,8.7,8.7,81,0.00,,---,0.24,VWS V14.01,2013-11-01 12:07:00,
2013-11-01 08:12:00,43.9,38.4,29.50,West,267,7.6,10.1,81,0.00,,---,0.24,VWS V14.01,2013-11-01 12:12:00,
2013-11-01 08:17:00,43.7,38.0,29.50,West,273,7.2,13.2,80,0.00,,---,0.24,VWS V14.01,2013-11-01 12:17:00,
2013-11-01 08:22:00,43.7,38.3,29.50,NW,312,0.0,8.7,81,0.00,,---,0.24,VWS V14.01,2013-11-01 12:22:00,
2013-11-01 08:27:00,43.7,38.3,29.50,NNW,333,8.1,13.6,81,0.00,,---,0.24,VWS V14.01,2013-11-01 12:27:00,
2013-11-01 08:32:00,43.7,38.3,29.50,NNW,329,3.1,13.6,81,0.00,,---,0.24,VWS V14.01,2013-11-01 12:32:00,
2013-11-01 08:37:00,43.7,38.3,29.50,NNW,340,0.0,13.6,81,0.00,,---,0.24,VWS V14.01,2013-11-01 12:37:00,
2013-11-01 08:42:00,43.7,38.3,29.53,WNW,303,4.9,8.1,81,0.00,,---,0.24,VWS V14.01,2013-11-01 12:42:00,
2013-11-01 08:47:00,43.7,38.6,29.53,WNW,297,3.1,8.1,82,0.00,,---,0.24,VWS V14.01,2013-11-01 12:47:00,
2013-11-01 08:52:00,43.7,38.6,29.53,North,350,4.9,8.1,82,0.00,,---,0.24,VWS V14.01,2013-11-01 12:52:00,
2013-11-01 08:57:00,43.7,38.6,29.53,NNW,335,8.3,9.6,82,0.00,,---,0.24,VWS V14.01,2013-11-01 12:57:00,
2013-11-01 09:02:00,43.7,38.6,29.53,WNW,290,8.1,10.1,82,0.00,,---,0.24,VWS V14.01,2013-11-01 13:02:00,
2013-11-01 09:07:00,43.7,38.6,29.53,NE,45,4.0,10.1,82,0.00,,---,0.24,VWS V14.01,2013-11-01 13:07:00,
2013-11-01 09:12:00,43.7,38.6,29.53,WNW,298,0.0,10.1,82,0.00,,---,0.24,VWS V14.01,2013-11-01 13:12:00,
2013-11-01 09:17:00,43.7,38.9,29.53,NW,312,11.0,11.0,83,0.00,,---,0.24,VWS V14.01,2013-11-01 13:17:00,
2013-11-01 09:22:00,43.7,38.9,29.53,NNW,345,2.2,6.7,83,0.00,,---,0.24,VWS V14.01,2013-11-01 13:22:00,
2013-11-01 09:27:00,43.9,39.1,29.56,WNW,295,10.1,10.5,83,0.00,,---,0.24,VWS V14.01,2013-11-01 13:27:00,
2013-11-01 09:32:00,43.9,39.1,29.56,West,278,4.0,10.5,83,0.00,,---,0.24,VWS V14.01,2013-11-01 13:32:00,
2013-11-01 09:37:00,43.9,39.1,29.56,North,8,11.0,11.4,83,0.00,,---,0.24,VWS V14.01,2013-11-01 13:37:00,
2013-11-01 09:42:00,44.1,39.2,29.56,NW,310,4.0,9.2,83,0.00,,---,0.24,VWS V14.01,2013-11-01 13:42:00,
2013-11-01 09:47:00,44.1,39.2,29.56,NW,320,5.8,10.1,83,0.00,,---,0.24,VWS V14.01,2013-11-01 13:47:00,
2013-11-01 09:52:00,44.1,39.2,29.56,WNW,294,5.4,10.1,83,0.00,,---,0.24,VWS V14.01,2013-11-01 13:52:00,
2013-11-01 09:57:00,44.1,39.2,29.56,NNW,330,2.7,12.3,83,0.00,,---,0.24,VWS V14.01,2013-11-01 13:57:00,
2013-11-01 10:02:00,44.1,39.2,29.56,West,277,3.6,8.1,83,0.00,,---,0.24,VWS V14.01,2013-11-01 14:02:00,
2013-11-01 10:08:00,44.1,39.2,29.56,WNW,295,4.9,8.1,83,0.00,,---,0.24,VWS V14.01,2013-11-01 14:08:00,
2013-11-01 10:13:00,44.1,39.2,29.56,NW,321,5.4,11.9,83,0.00,,---,0.24,VWS V14.01,2013-11-01 14:13:00,
2013-11-01 10:18:00,44.2,39.4,29.56,West,267,5.4,11.9,83,0.00,,---,0.24,VWS V14.01,2013-11-01 14:18:00,
2013-11-01 10:23:00,44.1,39.2,29.56,WNW,286,10.1,10.1,83,0.00,,---,0.24,VWS V14.01,2013-11-01 14:23:00,
2013-11-01 10:28:00,44.2,39.4,29.59,WNW,302,0.0,13.2,83,0.00,,---,0.24,VWS V14.01,2013-11-01 14:28:00,
2013-11-01 10:33:00,44.2,39.4,29.59,WNW,288,2.2,13.2,83,0.00,,---,0.24,VWS V14.01,2013-11-01 14:33:00,
2013-11-01 10:37:00,44.4,39.6,29.59,WNW,299,5.8,13.2,83,0.00,,---,0.24,VWS V14.01,2013-11-01 14:37:00,
2013-11-01 10:43:00,44.6,39.5,29.59,NW,324,0.0,7.2,82,0.00,,---,0.24,VWS V14.01,2013-11-01 14:43:00,
2013-11-01 10:48:00,44.6,39.5,29.59,WNW,287,0.0,8.3,82,0.00,,---,0.24,VWS V14.01,2013-11-01 14:48:00,
2013-11-01 10:53:00,44.6,39.5,29.59,NNW,339,0.0,8.3,82,0.00,,---,0.24,VWS V14.01,2013-11-01 14:53:00,
2013-11-01 10:58:00,44.2,39.4,29.59,WNW,300,8.3,8.3,83,0.00,,---,0.24,VWS V14.01,2013-11-01 14:58:00,
2013-11-01 11:03:00,44.2,39.4,29.59,NW,312,7.6,7.6,83,0.00,,---,0.24,VWS V14.01,2013-11-01 15:03:00,
2013-11-01 11:08:00,44.2,39.1,29.59,WNW,291,2.7,7.6,82,0.00,,---,0.24,VWS V14.01,2013-11-01 15:08:00,
2013-11-01 11:13:00,44.4,39.3,29.59,NNW,334,7.6,8.3,82,0.00,,---,0.24,VWS V14.01,2013-11-01 15:13:00,
2013-11-01 11:18:00,44.2,39.1,29.59,West,280,5.4,8.3,82,0.00,,---,0.24,VWS V14.01,2013-11-01 15:18:00,
2013-11-01 11:23:00,44.4,39.3,29.59,West,261,5.4,7.2,82,0.00,,---,0.24,VWS V14.01,2013-11-01 15:23:00,
2013-11-01 11:28:00,44.4,39.3,29.59,WNW,289,0.0,7.2,82,0.00,,---,0.24,VWS V14.01,2013-11-01 15:28:00,
2013-11-01 11:33:00,44.4,39.3,29.59,WNW,286,8.1,8.3,82,0.00,,---,0.24,VWS V14.01,2013-11-01 15:33:00,
2013-11-01 11:38:00,44.2,39.1,29.59,WNW,291,4.0,13.2,82,0.00,,---,0.24,VWS V14.01,2013-11-01 15:38:00,
2013-11-01 11:43:00,44.4,39.3,29.59,West,266,0.0,4.5,82,0.00,,---,0.24,VWS V14.01,2013-11-01 15:43:00,
2013-11-01 11:48:00,44.4,39.3,29.59,NW,323,0.0,10.5,82,0.00,,---,0.24,VWS V14.01,2013-11-01 15:48:00,
2013-11-01 11:53:00,44.6,39.5,29.59,WSW,254,0.0,10.5,82,0.00,,---,0.24,VWS V14.01,2013-11-01 15:53:00,
2013-11-01 11:58:00,44.8,39.6,29.59,West,266,2.7,10.5,82,0.00,,---,0.24,VWS V14.01,2013-11-01 15:58:00,
2013-11-01 12:03:00,45.0,39.8,29.59,NW,325,3.6,7.6,82,0.00,,---,0.24,VWS V14.01,2013-11-01 16:03:00,
2013-11-01 12:08:00,45.1,40.0,29.59,WNW,303,4.5,7.6,82,0.00,,---,0.24,VWS V14.01,2013-11-01 16:08:00,
2013-11-01 12:13:00,45.1,39.7,29.62,WSW,257,6.7,8.3,81,0.00,,---,0.24,VWS V14.01,2013-11-01 16:13:00,
2013-11-01 12:18:00,44.8,39.3,29.62,West,270,5.8,8.7,81,0.00,,---,0.24,VWS V14.01,2013-11-01 16:18:00,
2013-11-01 12:23:00,44.8,39.6,29.62,WNW,300,4.0,4.0,82,0.00,,---,0.24,VWS V14.01,2013-11-01 16:23:00,
2013-11-01 12:28:00,44.8,39.6,29.62,WNW,285,7.6,7.6,82,0.00,,---,0.24,VWS V14.01,2013-11-01 16:28:00,
2013-11-01 12:33:00,44.8,39.3,29.62,West,279,8.7,8.7,81,0.00,,---,0.24,VWS V14.01,2013-11-01 16:33:00,
2013-11-01 12:38:00,45.0,39.5,29.62,WNW,288,5.8,8.7,81,0.00,,---,0.24,VWS V14.01,2013-11-01 16:38:00,
2013-11-01 12:43:00,45.1,39.7,29.62,WNW,289,4.0,4.9,81,0.00,,---,0.24,VWS V14.01,2013-11-01 16:43:00,
2013-11-01 12:48:00,45.1,39.7,29.62,West,262,3.6,4.9,81,0.00,,---,0.24,VWS V14.01,2013-11-01 16:48:00,
2013-11-01 12:53:00,45.5,40.0,29.62,NW,307,3.6,7.6,81,0.00,,---,0.24,VWS V14.01,2013-11-01 16:53:00,
2013-11-01 12:58:00,45.5,40.0,29.62,WSW,254,5.4,8.1,81,0.00,,---,0.24,VWS V14.01,2013-11-01 16:58:00,
2013-11-01 13:03:00,45.3,39.8,29.62,WNW,300,5.4,5.4,81,0.00,,---,0.24,VWS V14.01,2013-11-01 17:03:00,
2013-11-01 13:08:00,45.1,39.7,29.62,West,269,4.0,5.8,81,0.00,,---,0.24,VWS V14.01,2013-11-01 17:08:00,
2013-11-01 13:13:00,45.3,39.8,29.62,NW,304,3.6,6.3,81,0.00,,---,0.24,VWS V14.01,2013-11-01 17:13:00,
2013-11-01 13:18:00,45.1,39.7,29.62,West,280,5.8,6.7,81,0.00,,---,0.24,VWS V14.01,2013-11-01 17:18:00,
2013-11-01 13:23:00,45.3,39.8,29.62,WNW,297,8.3,8.3,81,0.00,,---,0.24,VWS V14.01,2013-11-01 17:23:00,
2013-11-01 13:28:00,45.5,39.7,29.62,WNW,292,6.3,8.3,80,0.00,,---,0.24,VWS V14.01,2013-11-01 17:28:00,
2013-11-01 13:33:00,45.9,40.0,29.62,West,279,0.0,8.3,80,0.00,,---,0.24,VWS V14.01,2013-11-01 17:33:00,
2013-11-01 13:38:00,46.2,40.4,29.62,West,273,0.0,8.3,80,0.00,,---,0.24,VWS V14.01,2013-11-01 17:38:00,
2013-11-01 13:43:00,46.0,40.2,29.62,WNW,296,5.4,6.3,80,0.00,,---,0.24,VWS V14.01,2013-11-01 17:43:00,
2013-11-01 13:48:00,46.0,40.5,29.62,NW,312,0.0,6.3,81,0.00,,---,0.24,VWS V14.01,2013-11-01 17:48:00,
2013-11-01 13:53:00,45.9,40.4,29.62,West,271,2.2,6.3,81,0.00,,---,0.24,VWS V14.01,2013-11-01 17:53:00,
2013-11-01 13:58:00,45.9,40.0,29.62,WSW,255,5.8,6.3,80,0.08,,---,0.31,VWS V14.01,2013-11-01 17:58:00,
2013-11-01 14:03:00,45.9,40.0,29.62,WNW,301,2.7,6.3,80,0.08,,---,0.31,VWS V14.01,2013-11-01 18:03:00,
2013-11-01 14:08:00,46.0,40.2,29.62,WNW,296,9.6,9.6,80,0.08,,---,0.31,VWS V14.01,2013-11-01 18:08:00,
2013-11-01 14:13:00,46.6,40.4,29.62,NW,317,6.3,9.6,79,0.08,,---,0.31,VWS V14.01,2013-11-01 18:13:00,
2013-11-01 14:18:00,46.4,40.2,29.62,WNW,292,3.6,9.6,79,0.08,,---,0.31,VWS V14.01,2013-11-01 18:18:00,
2013-11-01 14:23:00,46.6,40.4,29.62,WNW,300,5.4,6.3,79,0.08,,---,0.31,VWS V14.01,2013-11-01 18:23:00,
2013-11-01 14:28:00,46.6,40.4,29.62,NW,305,0.0,6.3,79,0.08,,---,0.31,VWS V14.01,2013-11-01 18:28:00,
2013-11-01 14:33:00,46.6,40.4,29.62,NW,305,2.7,6.3,79,0.08,,---,0.31,VWS V14.01,2013-11-01 18:33:00,
2013-11-01 14:38:00,46.4,40.2,29.62,NNW,346,5.8,6.3,79,0.08,,---,0.31,VWS V14.01,2013-11-01 18:38:00,
2013-11-01 14:43:00,46.6,40.4,29.65,WNW,292,4.0,4.0,79,0.08,,---,0.31,VWS V14.01,2013-11-01 18:43:00,
2013-11-01 14:48:00,46.6,40.4,29.65,WNW,297,0.0,5.4,79,0.08,,---,0.31,VWS V14.01,2013-11-01 18:48:00,
2013-11-01 14:53:00,46.9,40.8,29.65,WNW,297,5.8,5.8,79,0.08,,---,0.31,VWS V14.01,2013-11-01 18:53:00,
2013-11-01 14:58:00,47.1,41.0,29.65,WNW,293,4.0,5.8,79,0.08,,---,0.31,VWS V14.01,2013-11-01 18:58:00,
2013-11-01 15:03:00,47.3,41.1,29.65,NW,312,2.7,4.0,79,0.00,,---,0.31,VWS V14.01,2013-11-01 19:03:00,
2013-11-01 15:08:00,47.1,41.0,29.65,WNW,301,6.7,6.7,79,0.00,,---,0.31,VWS V14.01,2013-11-01 19:08:00,
2013-11-01 15:13:00,47.5,41.3,29.65,North,11,3.6,6.7,79,0.00,,---,0.31,VWS V14.01,2013-11-01 19:13:00,
2013-11-01 15:18:00,47.7,41.2,29.65,WNW,299,0.0,6.7,78,0.00,,---,0.31,VWS V14.01,2013-11-01 19:18:00,
2013-11-01 15:23:00,47.5,41.0,29.65,WNW,283,5.4,7.6,78,0.00,,---,0.31,VWS V14.01,2013-11-01 19:23:00,
2013-11-01 15:28:00,47.8,41.0,29.65,NW,319,0.0,7.6,77,0.00,,---,0.31,VWS V14.01,2013-11-01 19:28:00,
2013-11-01 15:33:00,47.8,41.0,29.65,NNW,329,0.0,7.6,77,0.00,,---,0.31,VWS V14.01,2013-11-01 19:33:00,
2013-11-01 15:38:00,47.3,40.5,29.65,NNW,332,0.0,7.6,77,0.00,,---,0.31,VWS V14.01,2013-11-01 19:38:00,
2013-11-01 15:43:00,47.3,40.5,29.65,WNW,286,0.0,0.0,77,0.00,,---,0.31,VWS V14.01,2013-11-01 19:43:00,
2013-11-01 15:48:00,47.1,40.3,29.65,WNW,291,0.0,0.0,77,0.00,,---,0.31,VWS V14.01,2013-11-01 19:48:00,
2013-11-01 15:53:00,47.1,40.3,29.65,WNW,295,0.0,0.0,77,0.00,,---,0.31,VWS V14.01,2013-11-01 19:53:00,
2013-11-01 15:58:00,47.3,40.5,29.65,WNW,299,0.0,4.0,77,0.00,,---,0.31,VWS V14.01,2013-11-01 19:58:00,
2013-11-01 16:03:00,47.3,40.5,29.65,WNW,299,0.0,5.4,77,0.00,,---,0.31,VWS V14.01,2013-11-01 20:03:00,
2013-11-01 16:08:00,47.1,40.3,29.65,WNW,288,2.2,6.3,77,0.00,,---,0.31,VWS V14.01,2013-11-01 20:08:00,
2013-11-01 16:13:00,47.1,40.6,29.65,West,273,0.0,6.3,78,0.00,,---,0.31,VWS V14.01,2013-11-01 20:13:00,
2013-11-01 16:18:00,46.9,40.5,29.65,NW,318,2.7,6.3,78,0.00,,---,0.31,VWS V14.01,2013-11-01 20:18:00,
2013-11-01 16:23:00,46.9,40.5,29.65,WNW,289,0.0,0.0,78,0.00,,---,0.31,VWS V14.01,2013-11-01 20:23:00,
2013-11-01 16:28:00,46.8,40.3,29.65,NW,319,0.0,0.0,78,0.00,,---,0.31,VWS V14.01,2013-11-01 20:28:00,
2013-11-01 16:33:00,46.6,40.1,29.65,WNW,303,3.1,3.1,78,0.00,,---,0.31,VWS V14.01,2013-11-01 20:33:00,
2013-11-01 16:38:00,46.6,40.1,29.65,WNW,301,0.0,3.6,78,0.00,,---,0.31,VWS V14.01,2013-11-01 20:38:00,
2013-11-01 16:43:00,46.6,40.1,29.68,WNW,295,0.0,0.0,78,0.00,,---,0.31,VWS V14.01,2013-11-01 20:43:00,
2013-11-01 16:48:00,46.6,40.1,29.68,NW,319,4.9,4.9,78,0.00,,---,0.31,VWS V14.01,2013-11-01 20:48:00,
2013-11-01 16:53:00,46.4,39.9,29.68,WNW,291,0.0,6.3,78,0.00,,---,0.31,VWS V14.01,2013-11-01 20:53:00,
2013-11-01 16:58:00,46.4,40.2,29.68,NNW,334,0.0,6.3,79,0.00,,---,0.31,VWS V14.01,2013-11-01 20:58:00,
2013-11-01 17:03:00,46.4,40.2,29.68,NNW,334,0.0,0.0,79,0.00,,---,0.31,VWS V14.01,2013-11-01 21:03:00,
2013-11-01 17:08:00,46.4,40.2,29.68,West,265,0.0,0.0,79,0.04,,---,0.35,VWS V14.01,2013-11-01 21:08:00,
2013-11-01 17:13:00,46.4,40.6,29.68,West,271,0.0,0.0,80,0.04,,---,0.35,VWS V14.01,2013-11-01 21:13:00,
2013-11-01 17:18:00,46.0,40.2,29.68,WNW,284,3.1,3.1,80,0.04,,---,0.35,VWS V14.01,2013-11-01 21:18:00,
2013-11-01 17:34:00,46.0,40.5,29.68,WNW,298,0.0,3.1,81,0.04,,---,0.35,VWS V14.01,2013-11-01 21:34:00,
2013-11-01 17:40:00,46.0,40.5,29.68,NNW,339,0.0,3.1,81,0.04,,---,0.35,VWS V14.01,2013-11-01 21:40:00,
2013-11-01 17:45:00,46.0,40.5,29.68,NW,309,0.0,0.0,81,0.04,,---,0.35,VWS V14.01,2013-11-01 21:45:00,
2013-11-01 17:50:00,46.0,40.5,29.68,NW,309,0.0,0.0,81,0.04,,---,0.35,VWS V14.01,2013-11-01 21:50:00,
2013-11-01 17:55:00,46.0,40.5,29.68,NNW,342,0.0,0.0,81,0.04,,---,0.35,VWS V14.01,2013-11-01 21:55:00,
2013-11-01 18:00:00,46.0,40.9,29.68,NNW,342,0.0,0.0,82,0.08,,---,0.39,VWS V14.01,2013-11-01 22:00:00,
2013-11-01 18:05:00,46.0,40.9,29.68,NNW,343,0.0,0.0,82,0.08,,---,0.39,VWS V14.01,2013-11-01 22:05:00,
2013-11-01 18:10:00,46.0,40.9,29.68,NNW,342,0.0,0.0,82,0.08,,---,0.39,VWS V14.01,2013-11-01 22:10:00,
2013-11-01 18:15:00,45.9,40.7,29.68,NNW,344,0.0,0.0,82,0.08,,---,0.39,VWS V14.01,2013-11-01 22:15:00,
2013-11-01 18:20:00,45.9,40.7,29.68,NNW,344,0.0,0.0,82,0.08,,---,0.39,VWS V14.01,2013-11-01 22:20:00,
2013-11-01 18:25:00,45.9,40.7,29.71,NNW,344,0.0,0.0,82,0.04,,---,0.39,VWS V14.01,2013-11-01 22:25:00,
2013-11-01 18:30:00,45.9,40.7,29.71,NW,319,0.0,0.0,82,0.04,,---,0.39,VWS V14.01,2013-11-01 22:30:00,
2013-11-01 18:35:00,45.7,40.5,29.71,NW,324,0.0,0.0,82,0.04,,---,0.39,VWS V14.01,2013-11-01 22:35:00,
2013-11-01 18:40:00,45.7,40.5,29.71,NW,306,0.0,0.0,82,0.04,,---,0.39,VWS V14.01,2013-11-01 22:40:00,
2013-11-01 18:45:00,45.5,40.3,29.71,NW,316,0.0,0.0,82,0.04,,---,0.39,VWS V14.01,2013-11-01 22:45:00,
2013-11-01 18:50:00,45.5,40.3,29.71,WNW,287,0.0,0.0,82,0.04,,---,0.39,VWS V14.01,2013-11-01 22:50:00,
2013-11-01 18:55:00,45.5,40.3,29.71,NNW,339,0.0,0.0,82,0.04,,---,0.39,VWS V14.01,2013-11-01 22:55:00,
2013-11-01 19:00:00,45.5,40.7,29.71,NNW,339,0.0,0.0,83,0.04,,---,0.39,VWS V14.01,2013-11-01 23:00:00,
2013-11-01 19:05:00,45.5,40.7,29.71,NNW,344,0.0,0.0,83,0.00,,---,0.39,VWS V14.01,2013-11-01 23:05:00,
2013-11-01 19:10:00,45.3,40.5,29.71,NNW,328,0.0,0.0,83,0.00,,---,0.39,VWS V14.01,2013-11-01 23:10:00,
2013-11-01 19:15:00,45.3,40.5,29.71,West,274,0.0,0.0,83,0.00,,---,0.39,VWS V14.01,2013-11-01 23:15:00,
2013-11-01 19:20:00,45.1,40.3,29.71,WNW,302,0.0,0.0,83,0.00,,---,0.39,VWS V14.01,2013-11-01 23:20:00,
2013-11-01 19:25:00,45.1,40.3,29.71,WNW,286,0.0,0.0,83,0.00,,---,0.39,VWS V14.01,2013-11-01 23:25:00,
2013-11-01 19:30:00,45.1,40.3,29.71,NNW,344,0.0,0.0,83,0.00,,---,0.39,VWS V14.01,2013-11-01 23:30:00,
2013-11-01 19:35:00,45.1,40.3,29.71,NW,315,0.0,0.0,83,0.00,,---,0.39,VWS V14.01,2013-11-01 23:35:00,
2013-11-01 19:40:00,45.0,40.1,29.71,NNW,341,0.0,0.0,83,0.00,,---,0.39,VWS V14.01,2013-11-01 23:40:00,
2013-11-01 19:45:00,45.0,40.1,29.71,NNW,341,0.0,0.0,83,0.00,,---,0.39,VWS V14.01,2013-11-01 23:45:00,
2013-11-01 19:50:00,45.1,40.3,29.71,NW,306,0.0,0.0,83,0.00,,---,0.39,VWS V14.01,2013-11-01 23:50:00,
2013-11-01 19:55:00,45.1,40.3,29.74,NW,306,0.0,0.0,83,0.00,,---,0.39,VWS V14.01,2013-11-01 23:55:00,
2013-11-01 20:00:00,45.3,40.5,29.74,North,353,0.0,0.0,83,0.00,,---,0.39,VWS V14.01,2013-11-02 00:00:00,
2013-11-01 20:05:00,45.3,40.5,29.74,North,353,0.0,0.0,83,0.00,,---,0.39,VWS V14.01,2013-11-02 00:05:00,
2013-11-01 20:10:00,45.3,40.8,29.74,North,353,0.0,0.0,84,0.00,,---,0.39,VWS V14.01,2013-11-02 00:10:00,
2013-11-01 20:15:00,45.3,40.8,29.74,North,353,0.0,0.0,84,0.00,,---,0.39,VWS V14.01,2013-11-02 00:15:00,
2013-11-01 20:20:00,45.3,40.8,29.74,North,353,0.0,0.0,84,0.00,,---,0.39,VWS V14.01,2013-11-02 00:20:00,
2013-11-01 20:25:00,45.3,40.8,29.74,North,353,0.0,0.0,84,0.00,,---,0.39,VWS V14.01,2013-11-02 00:25:00,
2013-11-01 20:30:00,45.3,40.8,29.74,NNW,328,0.0,0.0,84,0.00,,---,0.39,VWS V14.01,2013-11-02 00:30:00,
2013-11-01 20:35:00,45.3,40.8,29.74,NNW,342,0.0,0.0,84,0.00,,---,0.39,VWS V14.01,2013-11-02 00:35:00,
2013-11-01 20:40:00,45.3,40.8,29.74,NNW,342,0.0,0.0,84,0.00,,---,0.39,VWS V14.01,2013-11-02 00:40:00,
2013-11-01 20:45:00,45.3,40.8,29.74,West,279,0.0,0.0,84,0.00,,---,0.39,VWS V14.01,2013-11-02 00:45:00,
2013-11-01 20:50:00,45.3,40.8,29.74,West,280,0.0,0.0,84,0.00,,---,0.39,VWS V14.01,2013-11-02 00:50:00,
2013-11-01 20:55:00,45.3,40.8,29.74,West,280,0.0,0.0,84,0.00,,---,0.39,VWS V14.01,2013-11-02 00:55:00,
2013-11-01 21:00:00,45.3,41.1,29.74,North,8,0.0,0.0,85,0.00,,---,0.39,VWS V14.01,2013-11-02 01:00:00,
2013-11-01 21:05:00,45.3,41.1,29.74,North,8,0.0,0.0,85,0.00,,---,0.39,VWS V14.01,2013-11-02 01:05:00,
2013-11-01 21:10:00,45.5,41.3,29.74,North,8,0.0,0.0,85,0.00,,---,0.39,VWS V14.01,2013-11-02 01:10:00,
2013-11-01 21:15:00,45.5,41.3,29.74,North,8,0.0,0.0,85,0.00,,---,0.39,VWS V14.01,2013-11-02 01:15:00,
2013-11-01 21:20:00,45.3,41.1,29.74,North,8,0.0,0.0,85,0.00,,---,0.39,VWS V14.01,2013-11-02 01:20:00,
2013-11-01 21:25:00,45.3,41.1,29.74,North,8,0.0,0.0,85,0.00,,---,0.39,VWS V14.01,2013-11-02 01:25:00,
2013-11-01 21:30:00,45.3,41.1,29.74,North,8,0.0,0.0,85,0.00,,---,0.39,VWS V14.01,2013-11-02 01:30:00,
2013-11-01 21:35:00,45.3,41.1,29.74,NW,326,0.0,0.0,85,0.00,,---,0.39,VWS V14.01,2013-11-02 01:35:00,
2013-11-01 21:40:00,45.3,41.1,29.74,WNW,301,0.0,0.0,85,0.00,,---,0.39,VWS V14.01,2013-11-02 01:40:00,
2013-11-01 21:45:00,45.3,41.1,29.74,WNW,301,0.0,0.0,85,0.00,,---,0.39,VWS V14.01,2013-11-02 01:45:00,
2013-11-01 21:50:00,45.3,41.1,29.74,NNW,332,0.0,0.0,85,0.00,,---,0.39,VWS V14.01,2013-11-02 01:50:00,
2013-11-01 21:55:00,45.1,40.9,29.74,NNW,332,0.0,0.0,85,0.00,,---,0.39,VWS V14.01,2013-11-02 01:55:00,
2013-11-01 22:00:00,45.1,40.9,29.74,NNW,341,0.0,0.0,85,0.00,,---,0.39,VWS V14.01,2013-11-02 02:00:00,
2013-11-01 22:05:00,45.1,40.9,29.74,NNW,341,0.0,0.0,85,0.04,,---,0.43,VWS V14.01,2013-11-02 02:05:00,
2013-11-01 22:10:00,45.1,40.9,29.74,NW,313,0.0,0.0,85,0.04,,---,0.43,VWS V14.01,2013-11-02 02:10:00,
2013-11-01 22:15:00,45.1,40.9,29.74,NW,313,0.0,0.0,85,0.04,,---,0.43,VWS V14.01,2013-11-02 02:15:00,
2013-11-01 22:20:00,45.1,40.9,29.74,NW,313,0.0,0.0,85,0.04,,---,0.43,VWS V14.01,2013-11-02 02:20:00,
2013-11-01 22:25:00,45.1,40.9,29.74,NW,313,0.0,0.0,85,0.04,,---,0.43,VWS V14.01,2013-11-02 02:25:00,
2013-11-01 22:30:00,45.1,40.9,29.74,NW,318,0.0,0.0,85,0.04,,---,0.43,VWS V14.01,2013-11-02 02:30:00,
2013-11-01 22:35:00,45.1,40.9,29.74,NNW,341,0.0,0.0,85,0.04,,---,0.43,VWS V14.01,2013-11-02 02:35:00,
2013-11-01 22:40:00,45.1,40.9,29.74,NNW,341,0.0,0.0,85,0.04,,---,0.43,VWS V14.01,2013-11-02 02:40:00,
2013-11-01 22:46:00,45.1,40.9,29.74,NNW,341,0.0,0.0,85,0.04,,---,0.43,VWS V14.01,2013-11-02 02:46:00,
2013-11-01 22:51:00,45.1,41.2,29.74,NNW,341,0.0,0.0,86,0.04,,---,0.43,VWS V14.01,2013-11-02 02:51:00,
2013-11-01 22:56:00,45.1,41.2,29.74,NNW,341,0.0,0.0,86,0.04,,---,0.43,VWS V14.01,2013-11-02 02:56:00,
2013-11-01 23:01:00,45.1,41.2,29.74,NNW,341,0.0,0.0,86,0.04,,---,0.43,VWS V14.01,2013-11-02 03:01:00,
2013-11-01 23:06:00,45.1,41.2,29.74,NNW,341,0.0,0.0,86,0.04,,---,0.43,VWS V14.01,2013-11-02 03:06:00,
2013-11-01 23:11:00,45.0,41.0,29.77,NNW,341,0.0,0.0,86,0.04,,---,0.43,VWS V14.01,2013-11-02 03:11:00,
2013-11-01 23:16:00,45.0,41.0,29.77,NW,324,0.0,0.0,86,0.04,,---,0.43,VWS V14.01,2013-11-02 03:16:00,
2013-11-01 23:21:00,44.8,40.9,29.77,NNE,22,2.7,2.7,86,0.00,,---,0.43,VWS V14.01,2013-11-02 03:21:00,
2013-11-01 23:38:00,44.4,40.5,29.77,NE,52,2.7,2.7,86,0.00,,---,0.43,VWS V14.01,2013-11-02 03:38:00,
2013-11-01 23:44:00,44.2,40.3,29.77,NE,52,0.0,0.0,86,0.00,,---,0.43,VWS V14.01,2013-11-02 03:44:00,
2013-11-01 23:49:00,44.2,40.3,29.77,NE,52,0.0,0.0,86,0.00,,---,0.43,VWS V14.01,2013-11-02 03:49:00,
2013-11-01 23:55:00,44.2,40.3,29.77,NE,52,0.0,0.0,86,0.00,,---,0.43,VWS V14.01,2013-11-02 03:55:00,